Location: Lafig�re
(44.4503°N, 4.0357°E)
Time: 15:45:25
(UTC+00:00)

ATLAS 2AS CENTAUR R/B - Pass Details

Date: 24 September 2020
Orbit: 939 x 1273 km, 63.7° (Epoch: 19 October)

Event Time Altitude Azimuth Distance (km) Brightness Sun altitude
Rises 20:13:14 0° 228° (SW) 4,195 6.0 -27.6°
Reaches altitude 10° 20:16:03 10° 232° (SW) 3,248 5.4 -28.1°
Maximum altitude 20:23:55 62° 313° (NW) 1,412 3.4 -29.3°
Drops below altitude 10° 20:31:43 10° 33° (NNE) 3,223 5.2 -30.5°
Sets 20:34:31 0° 37° (NE) 4,161 5.8 -30.9°
